Location: Unspecified
(11.1574°S, 0.0000°E)
Time: 13:56:02
(UTC+00:00)

RS-15 - Visible Passes

Search period start: 04 April 2026 00:00
Search period end: 14 April 2026 00:00
Orbit: 1893 x 2151 km, 64.8° (Epoch: 29 March)

Date Brightness Start Highest point End Pass type
(mag) Time Alt. Az. Time Alt. Az. Time Alt. Az.
4 Apr 9.0 02:28:29 30° NE 02:33:04 38° ENE 02:43:55 10° SE visible
4 Apr 8.4 04:36:32 19° NW 04:45:05 44° WSW 04:56:31 10° S visible
5 Apr 9.4 01:56:25 26° ENE 01:57:10 26° ENE 02:06:32 10° ESE visible
5 Apr 8.1 04:04:23 42° NW 04:08:57 60° WSW 04:21:01 10° SSE visible
6 Apr 9.9 01:23:41 16° E 01:23:41 16° E 01:28:05 10° ESE visible
6 Apr 7.9 03:31:35 74° NW 03:32:54 81° WSW 03:45:14 10° SSE visible
6 Apr 9.3 05:41:45 10° W 05:46:22 13° WSW 05:51:01 10° SSW visible
7 Apr 8.2 02:58:26 70° ESE 02:58:26 70° ESE 03:09:11 10° SSE visible
7 Apr 9.0 05:06:19 18° W 05:09:47 20° WSW 05:17:59 10° SSW visible
8 Apr 8.8 02:25:01 43° ESE 02:25:01 43° ESE 02:32:49 10° SE visible
8 Apr 8.7 04:32:53 29° WSW 04:33:24 29° WSW 04:43:30 10° S visible
9 Apr 9.5 01:51:25 25° ESE 01:51:25 25° ESE 01:56:05 10° SE visible
9 Apr 8.5 03:59:16 39° SW 03:59:16 39° SW 04:08:25 10° S visible
10 Apr 10.0 01:17:39 13° ESE 01:17:39 13° ESE 01:18:49 10° SE visible
10 Apr 8.6 03:25:29 41° SSW 03:25:29 41° SSW 03:32:59 10° S visible
11 Apr 9.0 02:51:36 34° SSE 02:51:36 34° SSE 02:57:15 10° SSE visible
11 Apr 9.4 04:59:25 12° SW 04:59:25 12° SW 05:02:14 10° SW visible
12 Apr 9.4 02:17:35 24° SSE 02:17:35 24° SSE 02:21:14 10° SSE visible
12 Apr 9.3 04:25:24 17° SW 04:25:24 17° SW 04:29:43 10° SSW visible
13 Apr 9.9 01:43:30 15° SE 01:43:30 15° SE 01:44:55 10° SSE visible
13 Apr 9.3 03:51:18 20° SSW 03:51:18 20° SSW 03:55:21 10° S visible
